Cloud_Cover
43 79 24 63 26 87 7 64 91 99 79 100 65 100 100 100 100 100 100 100 100 100 79 64 80 100 98 96 21 65 9 42 51 99 100 92 100 95 5 5 86 71 86 100 100 89 55 52 100
22 46 68 42 91 19 52 73 19 100 100 51 48 87 100 100 100 100 100 100 100 100 100 100 52 94 100 100 100 100 21 9 53 100 100 11 36 96 34 10 64 33 94 100 100 93 92 56 100
100 98 31 5 24 16 67 5 100 100 98 75 84 11 48 97 100 100 100 100 100 100 100 100 100 100 100 100 84 100 75 12 75 100 76 68 100 99 37 26 96 43 96 99 100 100 100 100 85
98 52 18 5 4 5 9 4 0 5 4 20 6 0 8 70 100 100 100 100 100 100 100 100 100 100 100 100 100 100 100 100 85 100 100 83 100 59 100 69 81 29 76 100 100 100 100 100 99
4 2 5 2 5 18 68 5 50 2 2 3 0 6 76 38 79 100 96 100 100 100 100 100 100 95 100 100 100 100 95 100 100 99 100 47 100 72 100 100 9 6 16 78 100 100 100 100 100
7 6 17 35 13 65 50 10 2 9 5 5 0 33 81 64 100 100 100 100 100 98 100 100 100 91 80 100 100 100 100 91 86 100 75 23 100 96 100 100 95 100 96 63 54 100 100 100 100
19 55 60 8 5 79 11 47 4 1 0 1 0 52 81 100 100 100 100 100 100 100 100 100 100 100 100 100 100 99 100 33 83 100 46 63 83 100 100 66 100 100 100 100 99 96 100 100 100
42 37 5 5 2 6 38 4 3 1 0 0 0 0 42 42 47 74 100 100 97 100 100 100 100 100 58 97 82 93 5 49 5 5 43 14 61 65 100 46 13 99 33 52 100 100 100 100 100
46 18 11 5 89 70 1 0 0 0 0 1 5 0 3 17 76 100 93 83 98 84 100 100 100 100 100 100 86 22 85 5 42 5 62 5 29 100 100 100 100 100 85 41 100 100 100 100 100
100 82 39 41 3 1 23 9 0 0 7 5 4 1 12 81 96 100 77 88 56 62 100 100 100 98 83 100 70 40 90 5 99 29 5 5 4 82 100 59 100 100 100 100 100 100 100 100 100
15 23 5 0 0 0 34 24 1 5 5 5 5 5 98 28 100 98 84 5 97 51 100 100 100 100 38 100 100 99 66 51 6 49 5 0 2 22 76 29 82 100 100 100 100 100 100 100 78
84 7 4 0 0 0 6 32 5 16 5 5 69 46 92 78 83 100 35 60 80 100 100 100 58 100 30 98 100 100 100 98 60 99 8 0 5 5 5 7 26 100 100 100 97 100 100 71 87
3 3 1 7 5 5 1 1 5 5 5 5 100 39 85 68 64 28 78 100 91 100 100 100 96 94 62 98 100 100 100 94 100 56 46 5 5 4 29 55 58 96 89 85 78 82 100 79 73
10 77 91 100 15 0 0 0 0 0 0 5 10 100 58 77 66 26 91 81 97 100 99 78 70 28 69 100 100 100 98 84 41 12 38 92 4 18 94 42 5 55 65 99 98 88 100 33 46
80 95 78 97 92 4 3 5 7 2 0 0 28 100 100 100 96 100 99 100 100 94 100 99 100 89 100 98 100 100 100 99 97 44 3 95 4 37 31 92 98 57 59 82 80 100 98 77 25
72 82 100 100 79 2 3 3 43 3 1 0 1 87 97 100 100 98 89 94 66 99 100 100 100 13 95 100 94 99 52 93 95 22 33 91 4 13 37 79 100 100 96 96 95 100 100 75 87
98 94 100 100 78 5 5 4 5 5 5 0 0 8 82 100 100 100 71 100 84 62 86 100 97 100 80 100 81 100 100 100 48 9 91 2 0 82 100 100 72 88 80 89 92 100 99 95 72
99 85 100 100 62 11 21 13 5 5 6 2 0 1 8 54 97 89 84 96 5 30 14 67 89 86 99 73 100 100 100 100 100 11 88 0 0 82 100 29 89 57 45 57 99 83 16 90 79
92 99 100 100 63 26 92 47 5 5 63 3 5 0 4 7 77 100 100 100 100 47 32 5 7 24 63 98 100 100 100 100 44 0 0 0 1 21 100 100 81 49 77 89 34 7 8 35 69
94 100 100 100 100 100 100 25 21 4 79 39 1 5 0 0 8 38 87 96 100 100 86 100 100 78 70 100 100 92 9 97 41 23 0 0 4 4 100 100 52 100 97 5 5 5 5 5 5
78 71 100 100 100 100 100 30 8 6 5 49 0 5 20 72 24 0 5 50 99 100 100 100 98 91 100 100 100 100 96 4 13 3 0 0 3 4 71 94 88 47 5 5 0 0 5 0 0
90 96 100 100 100 88 100 64 10 34 5 85 3 0 2 91 100 95 0 3 5 55 68 99 100 100 100 100 100 100 35 98 5 1 1 0 1 9 2 8 5 5 4 3 0 0 0 0 0
99 100 100 100 100 100 100 83 8 5 5 5 5 4 3 92 38 100 100 3 0 0 0 5 5 34 5 14 43 74 72 27 5 0 5 0 0 0 0 0 0 0 0 0 0 0 0 0 0
39 100 100 100 100 100 100 90 99 7 18 5 5 5 13 11 16 91 100 100 1 0 0 0 0 0 0 0 0 39 77 3 0 0 2 0 0 0 0 0 0 0 0 0 0 0 0 0 0
21 100 100 100 100 100 100 100 100 86 42 6 5 5 7 11 100 67 76 68 61 0 0 0 0 0 0 0 0 0 1 0 0 0 1 0 0 0 0 0 0 0 0 0 0 0 0 0 3
29 55 80 100 100 100 100 84 10 13 100 99 7 5 91 80 58 93 6 100 2 5 0 0 0 2 7 0 0 0 0 0 0 2 0 0 0 0 0 0 0 0 0 0 0 0 0 0 3
99 87 7 42 100 100 99 43 5 4 25 100 5 10 5 79 43 95 47 100 100 86 24 0 0 3 17 0 0 0 0 4 0 0 0 0 0 0 0 0 0 0 0 0 0 0 1 0 0
44 100 74 96 69 45 6 8 3 5 24 100 94 35 99 100 94 71 28 97 100 100 99 6 2 1 5 2 0 0 0 0 0 0 0 0 0 0 0 0 0 0 0 0 0 0 0 0 0
0 3 70 57 99 5 18 0 0 5 3 100 99 20 99 100 81 76 5 57 85 100 100 92 9 3 0 0 0 0 0 0 0 0 0 0 0 0 0 0 0 0 0 0 0 0 0 0 0
0 0 0 6 67 55 3 0 0 5 43 100 100 84 94 100 100 84 93 87 100 100 100 100 99 17 5 1 7 5 27 0 0 0 0 0 0 0 0 0 0 0 0 0 0 0 0 0 0